Weather History for Marshall, MN

Change the Weather History Date:

Wednesday, January 15, 2014

  Actual Average Record
Temperature  
Mean Temperature 22 °F -  
Max Temperature 41 °F 22 °F 44 °F (2012)
Min Temperature 3 °F 2 °F -28 °F (1972)
Degree Days  
Heating Degree Days 43    
Moisture  
Dew Point 10 °F    
Average Humidity 68    
Maximum Humidity 85    
Minimum Humidity 49    
Precipitation  
Precipitation 0.00 in - - ()
Sea Level Pressure  
Sea Level Pressure 29.83 in    
Wind  
Wind Speed 14 mph (WSW)    
Max Wind Speed 36 mph    
Max Gust Speed 45 mph    
Visibility 10 miles    
Events      
Averages and records for this station are not official NWS values.
T = Trace of Precipitation, MM = Missing Value Source: NWS Daily Summary

Daily Weather History Graph

Daily Weather History Graph

Search for Another Location

Airport:

Trip Planner

Search our weather history database for the weather conditions in past years. The results will help you decide how hot, cold, wet, or windy it might be!

Date:

Astronomy

Jan. 15, 2014 Rise Set
Actual Time 7:56 AM CST 5:09 PM CST
Civil Twilight 7:23 AM CST 5:42 PM CST
Nautical Twilight 6:47 AM CST 6:18 PM CST
Astronomical Twilight 6:13 AM CST 6:52 PM CST
Moon 5:10 PM CST (1/15) 7:10 AM CST (1/15)
Length of Visible Light 10h 18m
Length of Day
9h 13m
Full, 100% of the Moon is Illuminated
Jan 15
Full
Jan 15
Full
Jan 23
Last Quarter
Jan 30
New
Feb 6
First Quarter

Hourly Weather History & Observations

Time (CST) Temp. Windchill Dew Point Humidity Pressure Visibility Wind Dir Wind Speed Gust Speed Precip Events Conditions
12:15 AM 12.2 °F -2.5 °F 5.0 °F 73% 30.15 in 10.0 mi North 12.7 mph - N/A   Overcast
12:35 AM 12.2 °F -1.8 °F 5.0 °F 73% 30.16 in 10.0 mi NNW 11.5 mph - N/A   Overcast
12:55 AM 12.2 °F -1.8 °F 5.0 °F 73% 30.15 in 10.0 mi North 11.5 mph - N/A   Overcast
1:15 AM 12.2 °F -1.8 °F 5.0 °F 73% 30.14 in 10.0 mi NNW 11.5 mph - N/A   Overcast
1:35 AM 12.2 °F -3.1 °F 5.0 °F 73% 30.14 in 10.0 mi North 13.8 mph - N/A   Overcast
1:55 AM 12.2 °F -1.8 °F 5.0 °F 73% 30.14 in 10.0 mi NNW 11.5 mph - N/A   Overcast
2:15 AM 12.2 °F -3.7 °F 3.2 °F 67% 30.15 in 10.0 mi NNW 15.0 mph - N/A   Overcast
2:35 AM 12.2 °F -1.8 °F 3.2 °F 67% 30.15 in 10.0 mi NNW 11.5 mph - N/A   Overcast
2:55 AM 12.2 °F -0.2 °F 3.2 °F 67% 30.14 in 10.0 mi NNW 9.2 mph - N/A   Mostly Cloudy
3:15 AM 12.2 °F -0.2 °F 3.2 °F 67% 30.14 in 10.0 mi NW 9.2 mph - N/A   Overcast
3:35 AM 12.2 °F -1.0 °F 3.2 °F 67% 30.14 in 10.0 mi WNW 10.4 mph - N/A   Overcast
3:55 AM 10.4 °F -4.1 °F 3.2 °F 73% 30.13 in 10.0 mi WNW 11.5 mph - N/A   Overcast
4:15 AM 10.4 °F -6.0 °F 3.2 °F 73% 30.13 in 10.0 mi WNW 15.0 mph - N/A   Overcast
4:35 AM 8.6 °F -6.3 °F 1.4 °F 73% 30.13 in 10.0 mi West 11.5 mph - N/A   Scattered Clouds
4:55 AM 6.8 °F -7.8 °F -0.4 °F 72% 30.13 in 10.0 mi West 10.4 mph - N/A   Clear
5:15 AM 5.0 °F -10.0 °F -0.4 °F 78% 30.11 in 10.0 mi West 10.4 mph - N/A   Clear
5:35 AM 5.0 °F -10.0 °F -0.4 °F 78% 30.10 in 10.0 mi West 10.4 mph - N/A   Clear
5:55 AM 5.0 °F -6.9 °F -0.4 °F 78% 30.09 in 10.0 mi West 6.9 mph - N/A   Clear
6:15 AM 3.2 °F -11.3 °F -0.4 °F 85% 30.09 in 10.0 mi West 9.2 mph - N/A   Clear
6:35 AM 3.2 °F -9.1 °F -0.4 °F 85% 30.09 in 10.0 mi West 6.9 mph - N/A   Clear
6:55 AM 3.2 °F -6.2 °F -0.4 °F 85% 30.07 in 10.0 mi WSW 4.6 mph - N/A   Clear
7:15 AM 3.2 °F -4.2 °F -2.2 °F 78% 30.06 in 10.0 mi SW 3.5 mph - N/A   Clear
7:35 AM 3.2 °F -7.8 °F -2.2 °F 78% 30.07 in 10.0 mi WSW 5.8 mph - N/A   Clear
7:55 AM 3.2 °F -6.2 °F -2.2 °F 78% 30.06 in 10.0 mi West 4.6 mph - N/A   Clear
8:15 AM 3.2 °F -4.2 °F -2.2 °F 78% 30.07 in 10.0 mi SW 3.5 mph - N/A   Clear
8:35 AM 3.2 °F -4.2 °F -2.2 °F 78% 30.06 in 10.0 mi South 3.5 mph - N/A   Clear
8:55 AM 6.8 °F -2.0 °F -0.4 °F 72% 30.04 in 10.0 mi South 4.6 mph - N/A   Clear
9:15 AM 6.8 °F -3.5 °F -2.2 °F 67% 30.03 in 10.0 mi South 5.8 mph - N/A   Clear
9:35 AM 6.8 °F -5.9 °F -0.4 °F 72% 30.02 in 10.0 mi South 8.1 mph - N/A   Clear
9:55 AM 8.6 °F -4.7 °F -0.4 °F 67% 29.99 in 10.0 mi South 9.2 mph - N/A   Clear
10:15 AM 10.4 °F -3.3 °F 3.2 °F 73% 29.98 in 10.0 mi South 10.4 mph - N/A   Clear
10:35 AM 12.2 °F -1.0 °F 3.2 °F 67% 29.97 in 10.0 mi South 10.4 mph - N/A   Scattered Clouds
10:55 AM 15.8 °F 5.1 °F 5.0 °F 62% 29.96 in 10.0 mi SSW 8.1 mph - N/A   Mostly Cloudy
11:15 AM 17.6 °F 6.4 °F 3.2 °F 53% 29.94 in 10.0 mi SW 9.2 mph - N/A   Clear
11:35 AM 17.6 °F 5.0 °F 3.2 °F 53% 29.92 in 10.0 mi SW 11.5 mph - N/A   Mostly Cloudy
11:55 AM 17.6 °F 2.7 °F 1.4 °F 49% 29.88 in 10.0 mi SSW 16.1 mph - N/A   Mostly Cloudy
12:15 PM 19.4 °F 4.1 °F 3.2 °F 49% 29.85 in 10.0 mi SSW 18.4 mph - N/A   Mostly Cloudy
12:35 PM 17.6 °F 2.2 °F 3.2 °F 53% 29.82 in 10.0 mi SSW 17.3 mph 21.9 mph N/A   Mostly Cloudy
12:55 PM 17.6 °F 2.7 °F 5.0 °F 58% 29.79 in 10.0 mi SSW 16.1 mph 23.0 mph N/A   Overcast
1:15 PM 19.4 °F 3.2 °F 6.8 °F 58% 29.75 in 10.0 mi SSW 20.7 mph 25.3 mph N/A   Scattered Clouds
1:35 PM 19.4 °F 3.6 °F 6.8 °F 58% 29.72 in 10.0 mi SSW 19.6 mph 31.1 mph N/A   Mostly Cloudy
1:55 PM 19.4 °F 2.1 °F 8.6 °F 63% 29.72 in 10.0 mi SSW 24.2 mph 29.9 mph N/A   Overcast
2:15 PM 19.4 °F 5.0 °F 10.4 °F 68% 29.72 in 10.0 mi South 16.1 mph 19.6 mph N/A   Overcast
2:35 PM 19.4 °F 5.0 °F 8.6 °F 63% 29.70 in 10.0 mi South 16.1 mph - N/A   Overcast
2:55 PM 21.2 °F 8.3 °F 10.4 °F 63% 29.68 in 10.0 mi South 13.8 mph 20.7 mph N/A   Overcast
3:15 PM 21.2 °F 10.1 °F 12.2 °F 68% 29.66 in 10.0 mi South 10.4 mph - N/A   Mostly Cloudy
3:35 PM 24.8 °F 10.7 °F 15.8 °F 69% 29.65 in 10.0 mi SSW 19.6 mph 26.5 mph N/A   Overcast
3:55 PM 24.8 °F 10.3 °F 15.8 °F 69% 29.63 in 10.0 mi SSW 20.7 mph - N/A   Overcast
4:15 PM 24.8 °F 11.9 °F 17.6 °F 74% 29.61 in 8.0 mi South 16.1 mph - N/A   Mostly Cloudy
4:35 PM 26.6 °F 15.7 °F 17.6 °F 69% 29.60 in 10.0 mi SSW 12.7 mph - N/A   Mostly Cloudy
4:55 PM 28.4 °F 14.4 °F 17.6 °F 64% 29.58 in 10.0 mi WSW 23.0 mph 32.2 mph N/A   Mostly Cloudy
5:15 PM 28.4 °F 13.8 °F 17.6 °F 64% 29.56 in 10.0 mi SW 25.3 mph 31.1 mph N/A   Partly Cloudy
5:35 PM 26.6 °F 13.1 °F 19.4 °F 74% 29.56 in 10.0 mi SW 19.6 mph - N/A   Clear
5:55 PM 30.2 °F 17.1 °F 19.4 °F 64% 29.55 in 10.0 mi SW 21.9 mph 31.1 mph N/A   Clear
6:15 PM 30.2 °F 18.9 °F 21.2 °F 69% 29.54 in 10.0 mi SW 16.1 mph 27.6 mph N/A   Clear
6:35 PM 30.2 °F 20.2 °F 21.2 °F 69% 29.52 in 10.0 mi SW 12.7 mph 27.6 mph N/A   Partly Cloudy
6:55 PM 33.8 °F 20.1 °F 21.2 °F 60% 29.49 in 10.0 mi WSW 29.9 mph 36.8 mph N/A   Scattered Clouds
7:15 PM 35.6 °F 21.5 °F 24.8 °F 65% 29.51 in 10.0 mi West 35.7 mph 43.7 mph N/A   Clear
7:35 PM 37.4 °F 24.6 °F 24.8 °F 60% 29.49 in 10.0 mi West 32.2 mph 44.9 mph N/A   Mostly Cloudy
7:55 PM 35.6 °F 22.5 °F 24.8 °F 65% 29.50 in 10.0 mi West 29.9 mph 38.0 mph N/A   Overcast
8:15 PM 37.4 °F 25.9 °F 26.6 °F 65% 29.48 in 10.0 mi West 25.3 mph 34.5 mph N/A   Partly Cloudy
8:35 PM 35.6 °F 24.2 °F 26.6 °F 70% 29.48 in 10.0 mi West 21.9 mph - N/A   Clear
8:55 PM 39.2 °F 29.3 °F 28.4 °F 65% 29.48 in 10.0 mi WNW 20.7 mph - N/A   Clear
9:15 PM 39.2 °F 29.3 °F 28.4 °F 65% 29.46 in 10.0 mi WNW 20.7 mph 27.6 mph N/A   Clear
9:35 PM 41.0 °F 30.5 °F 26.6 °F 57% 29.47 in 10.0 mi WNW 26.5 mph 39.1 mph N/A   Clear
9:55 PM 41.0 °F 29.7 °F 28.4 °F 61% 29.47 in 10.0 mi WNW 31.1 mph 40.3 mph N/A   Clear
10:15 PM 39.2 °F 27.2 °F 28.4 °F 65% 29.48 in 10.0 mi WNW 31.1 mph 40.3 mph N/A   Clear
10:35 PM 39.2 °F 27.8 °F 26.6 °F 61% 29.48 in 10.0 mi WNW 27.6 mph 34.5 mph N/A   Clear
10:55 PM 39.2 °F 28.0 °F 26.6 °F 61% 29.48 in 10.0 mi WNW 26.5 mph 31.1 mph N/A   Clear
11:15 PM 39.2 °F 28.7 °F 26.6 °F 61% 29.47 in 10.0 mi WNW 23.0 mph 31.1 mph N/A   Clear
11:35 PM 37.4 °F 25.9 °F 26.6 °F 65% 29.47 in 10.0 mi WNW 25.3 mph 28.8 mph N/A   Clear
11:55 PM 37.4 °F 26.6 °F 26.6 °F 65% 29.46 in 10.0 mi West 21.9 mph - N/A   Partly Cloudy